Cairo, IL

12:29 PM CDT on July 27, 2017 (GMT -0500)
Cairo Regional

Weather History for KCIR - April, 2013

Change the Weather History Date:

Friday, April 19, 2013

  Actual Average Record
Temperature  
Mean Temperature 48 °F -  
Max Temperature 54 °F 71 °F 87 °F (1971)
Min Temperature 41 °F 52 °F 33 °F (1953)
Degree Days  
Heating Degree Days 18    
Moisture  
Dew Point 34 °F    
Average Humidity 58    
Maximum Humidity 78    
Minimum Humidity 43    
Precipitation  
Precipitation 0.00 in - - ()
Sea Level Pressure  
Sea Level Pressure 29.95 in    
Wind  
Wind Speed 13 mph (WSW)    
Max Wind Speed 21 mph    
Max Gust Speed 26 mph    
Visibility 10 miles    
Events      
Averages and records for this station are not official NWS values.
T = Trace of Precipitation, MM = Missing Value Source: NWS Daily Summary

Daily Weather History Graph

Daily Weather History Graph

Search for Another Location

Airport or City:

Trip Planner

Search our weather history database for the weather conditions in past years. The results will help you decide how hot, cold, wet, or windy it might be!

Date:

Astronomy

Apr. 19, 2013 Rise Set
Actual Time 6:16 AM CDT 7:35 PM CDT
Civil Twilight 5:49 AM CDT 8:02 PM CDT
Nautical Twilight 5:17 AM CDT 8:35 PM CDT
Astronomical Twilight 4:43 AM CDT 9:09 PM CDT
Moon 1:28 PM CDT (4/19) 2:23 AM CDT (4/19)
Length of Visible Light 14h 12m
Length of Day
13h 18m
First Quarter, 62% of the Moon is Illuminated
Apr 19
First Quarter
Apr 25
Full
May 2
Last Quarter
May 9
New
May 17
First Quarter

Hourly Weather History & Observations

Time (CDT) Temp. Windchill Dew Point Humidity Pressure Visibility Wind Dir Wind Speed Gust Speed Precip Events Conditions
12:15 AM 47.7 °F - 41.0 °F 78% 29.78 in 10.0 mi NW 13.8 mph 20.7 mph N/A   Overcast
12:35 AM 47.5 °F - 39.9 °F 75% 29.80 in 10.0 mi WNW 16.1 mph 23.0 mph N/A   Overcast
12:55 AM 47.3 °F - 38.3 °F 71% 29.78 in 10.0 mi WNW 20.7 mph 26.5 mph N/A   Overcast
1:15 AM 46.6 °F - 36.9 °F 69% 29.79 in 10.0 mi WNW 17.3 mph 24.2 mph N/A   Overcast
1:35 AM 46.6 °F - 36.3 °F 67% 29.80 in 10.0 mi West 16.1 mph 23.0 mph N/A   Overcast
1:55 AM 46.4 °F 39.5 °F 36.3 °F 68% 29.81 in 10.0 mi West 17.3 mph 20.7 mph N/A   Overcast
2:15 AM 46.4 °F 41.9 °F 36.5 °F 68% 29.81 in 10.0 mi WNW 9.2 mph - N/A   Overcast
2:35 AM 46.4 °F 39.8 °F 36.3 °F 68% 29.82 in 10.0 mi WNW 16.1 mph 20.7 mph N/A   Overcast
2:55 AM 45.9 °F 40.0 °F 35.1 °F 66% 29.83 in 10.0 mi WNW 12.7 mph 18.4 mph N/A   Overcast
3:15 AM 45.7 °F 39.5 °F 35.1 °F 66% 29.83 in 10.0 mi West 13.8 mph 19.6 mph N/A   Overcast
3:35 AM 45.0 °F 37.4 °F 32.9 °F 63% 29.84 in 10.0 mi West 18.4 mph 26.5 mph N/A   Overcast
3:55 AM 45.0 °F 37.6 °F 32.4 °F 61% 29.84 in 10.0 mi WNW 17.3 mph 23.0 mph N/A   Overcast
4:15 AM 44.8 °F 39.4 °F 33.1 °F 64% 29.85 in 10.0 mi West 10.4 mph - N/A   Overcast
4:35 AM 44.8 °F 39.0 °F 32.9 °F 63% 29.85 in 10.0 mi WNW 11.5 mph 17.3 mph N/A   Overcast
4:55 AM 44.8 °F 38.3 °F 32.5 °F 62% 29.85 in 10.0 mi West 13.8 mph 18.4 mph N/A   Overcast
5:15 AM 44.8 °F 40.4 °F 33.1 °F 64% 29.85 in 10.0 mi West 8.1 mph - N/A   Overcast
5:55 AM 44.8 °F 38.3 °F 32.7 °F 63% 29.87 in 10.0 mi West 13.8 mph - N/A   Overcast
6:15 AM 44.8 °F 39.9 °F 32.9 °F 63% 29.88 in 10.0 mi West 9.2 mph - N/A   Overcast
6:35 AM 44.8 °F 39.4 °F 32.9 °F 63% 29.89 in 10.0 mi West 10.4 mph - N/A   Overcast
6:55 AM 44.8 °F 38.7 °F 33.3 °F 64% 29.91 in 10.0 mi West 12.7 mph 16.1 mph N/A   Overcast
7:15 AM 44.8 °F 39.4 °F 32.5 °F 62% 29.92 in 10.0 mi WNW 10.4 mph 17.3 mph N/A   Overcast
7:35 AM 44.8 °F 39.4 °F 32.2 °F 61% 29.93 in 10.0 mi West 10.4 mph - N/A   Overcast
7:55 AM 44.8 °F 37.4 °F 32.2 °F 61% 29.93 in 10.0 mi West 17.3 mph 25.3 mph N/A   Overcast
8:15 AM 44.6 °F 38.1 °F 32.0 °F 61% 29.93 in 10.0 mi West 13.8 mph 19.6 mph N/A   Overcast
8:35 AM 44.6 °F 39.2 °F 31.3 °F 60% 29.94 in 10.0 mi West 10.4 mph - N/A   Overcast
8:55 AM 44.8 °F 39.0 °F 30.9 °F 58% 29.94 in 10.0 mi WNW 11.5 mph 16.1 mph N/A   Overcast
9:15 AM 44.6 °F 38.1 °F 31.6 °F 60% 29.94 in 10.0 mi West 13.8 mph 17.3 mph N/A   Overcast
9:55 AM 44.6 °F 38.1 °F 32.0 °F 61% 29.95 in 10.0 mi West 13.8 mph 18.4 mph N/A   Overcast
10:15 AM 44.6 °F 38.1 °F 31.1 °F 59% 29.96 in 10.0 mi West 13.8 mph - N/A   Overcast
10:35 AM 45.0 °F 37.9 °F 30.7 °F 57% 29.97 in 10.0 mi West 16.1 mph 21.9 mph N/A   Overcast
10:55 AM 44.8 °F 37.7 °F 30.2 °F 57% 29.98 in 10.0 mi West 16.1 mph 20.7 mph N/A   Overcast
11:15 AM 45.9 °F 39.7 °F 31.6 °F 58% 29.99 in 10.0 mi West 13.8 mph 19.6 mph N/A   Overcast
11:35 AM 45.9 °F 40.0 °F 32.0 °F 58% 29.99 in 10.0 mi WSW 12.7 mph - N/A   Overcast
11:55 AM 45.7 °F 39.8 °F 31.3 °F 57% 29.99 in 10.0 mi WSW 12.7 mph - N/A   Overcast
12:15 PM 46.2 °F 39.8 °F 32.0 °F 58% 29.99 in 10.0 mi SW 15.0 mph 20.7 mph N/A   Overcast
12:35 PM 47.1 °F - 32.2 °F 56% 29.99 in 10.0 mi WSW 13.8 mph 20.7 mph N/A   Overcast
12:55 PM 48.2 °F - 32.4 °F 54% 29.98 in 10.0 mi SW 13.8 mph 18.4 mph N/A   Overcast
1:15 PM 47.8 °F - 32.0 °F 54% 29.98 in 10.0 mi WSW 13.8 mph 19.6 mph N/A   Overcast
1:35 PM 48.2 °F - 32.0 °F 54% 29.97 in 10.0 mi WSW 15.0 mph 23.0 mph N/A   Overcast
1:55 PM 48.7 °F - 33.6 °F 56% 29.98 in 10.0 mi SW 13.8 mph 19.6 mph N/A   Overcast
2:15 PM 48.6 °F - 33.1 °F 55% 29.99 in 10.0 mi WSW 13.8 mph 19.6 mph N/A   Overcast
2:35 PM 49.3 °F - 33.8 °F 55% 29.99 in 10.0 mi West 16.1 mph 24.2 mph N/A   Overcast
2:55 PM 50.0 °F - 33.3 °F 53% 29.99 in 10.0 mi West 13.8 mph 20.7 mph N/A   Overcast
3:15 PM 51.3 °F - 32.7 °F 49% 29.99 in 10.0 mi West 12.7 mph 18.4 mph N/A   Mostly Cloudy
3:35 PM 50.7 °F - 32.0 °F 49% 29.99 in 10.0 mi WSW 11.5 mph 19.6 mph N/A   Overcast
3:55 PM 52.2 °F - 34.0 °F 50% 29.98 in 10.0 mi SSW 10.4 mph 17.3 mph N/A   Mostly Cloudy
4:15 PM 51.4 °F - 32.2 °F 48% 29.99 in 10.0 mi SW 11.5 mph 17.3 mph N/A   Mostly Cloudy
4:35 PM 52.7 °F - 32.9 °F 47% 29.99 in 10.0 mi SSW 12.7 mph 18.4 mph N/A   Scattered Clouds
4:55 PM 53.6 °F - 34.2 °F 48% 29.99 in 10.0 mi WSW 15.0 mph - N/A   Scattered Clouds
5:15 PM 54.1 °F - 33.1 °F 45% 30.00 in 10.0 mi West 12.7 mph 16.1 mph N/A   Scattered Clouds
5:35 PM 54.1 °F - 32.9 °F 45% 30.00 in 10.0 mi SW 9.2 mph - N/A   Clear
5:55 PM 54.5 °F - 32.5 °F 43% 30.00 in 10.0 mi SW 9.2 mph - N/A   Clear
6:15 PM 54.0 °F - 34.0 °F 47% 30.00 in 10.0 mi SSW 9.2 mph - N/A   Scattered Clouds
6:35 PM 53.6 °F - 34.0 °F 47% 29.99 in 10.0 mi South 9.2 mph - N/A   Clear
6:55 PM 53.1 °F - 33.8 °F 48% 30.00 in 10.0 mi South 6.9 mph - N/A   Clear
7:15 PM 52.0 °F - 34.3 °F 51% 30.00 in 10.0 mi South 5.8 mph - N/A   Clear
7:35 PM 50.5 °F - 35.2 °F 56% 30.01 in 10.0 mi South 4.6 mph - N/A   Mostly Cloudy
7:55 PM 50.5 °F - 36.5 °F 59% 30.02 in 10.0 mi South 6.9 mph - N/A   Overcast
8:15 PM 50.0 °F - 37.4 °F 62% 30.03 in 10.0 mi SSW 3.5 mph - N/A   Overcast
8:35 PM 50.9 °F - 36.7 °F 58% 30.04 in 10.0 mi Calm Calm - N/A   Mostly Cloudy
8:55 PM 50.0 °F - 35.1 °F 57% 30.05 in 10.0 mi West 5.8 mph - N/A   Scattered Clouds
9:15 PM 50.0 °F - 32.9 °F 52% 30.06 in 10.0 mi West 5.8 mph - N/A   Scattered Clouds
9:35 PM 49.6 °F - 32.0 °F 51% 30.07 in 10.0 mi West 3.5 mph - N/A   Clear
9:55 PM 48.6 °F - 32.4 °F 54% 30.08 in 10.0 mi West 6.9 mph - N/A   Clear
10:15 PM 48.4 °F - 32.2 °F 54% 30.09 in 10.0 mi WNW 3.5 mph - N/A   Clear
10:35 PM 48.2 °F - 32.4 °F 54% 30.09 in 10.0 mi West 4.6 mph - N/A   Clear
10:55 PM 46.6 °F - 33.8 °F 61% 30.09 in 10.0 mi WSW 3.5 mph - N/A   Clear
11:15 PM 45.7 °F 44.4 °F 33.6 °F 63% 30.10 in 10.0 mi WSW 3.5 mph - N/A   Clear
11:35 PM 41.9 °F - 33.6 °F 72% 30.10 in 10.0 mi Calm Calm - N/A   Clear
11:55 PM 43.5 °F - 35.4 °F 73% 30.11 in 10.0 mi Calm Calm - N/A   Clear